GFSGL_700_temp_057.txt.gz
Temp
9 9 8 8 7 7 8 8 8 8 8 8 8 7 8 8 8 8 8 8 8 9 9 9 9 8 8 8 8 8 8 7 8 7 7 7 7 7 6 6 6 5 5
10 9 8 8 8 8 8 8 8 8 8 8 7 7 7 7 7 8 8 8 8 8 9 9 9 9 9 9 8 8 8 7 7 7 7 7 6 6 6 4 4 5 5
11 11 9 9 8 8 7 7 7 8 8 8 7 7 7 7 7 7 8 8 8 8 8 9 9 8 8 8 8 8 8 8 7 7 6 7 6 5 5 5 5 4 4
11 10 10 10 9 8 8 7 7 7 7 7 8 7 7 7 6 7 7 7 7 7 7 8 8 8 8 8 8 8 8 7 7 7 7 7 7 4 5 5 4 3 4
10 10 9 9 9 9 8 7 7 7 7 7 7 7 6 6 6 6 7 7 7 7 6 7 7 7 7 7 7 7 7 7 7 7 6 6 6 4 4 3 3 4 4
9 10 9 9 8 7 7 7 6 6 6 6 6 7 7 6 6 6 6 6 6 6 6 6 6 6 6 6 7 7 6 6 6 6 6 6 6 5 4 4 4 4 4
9 9 9 8 7 7 6 6 6 5 5 5 5 5 6 6 6 6 6 6 6 5 6 6 6 6 6 6 6 6 6 6 6 6 6 6 5 5 4 4 4 4 4
9 9 9 8 6 6 6 6 6 6 5 5 5 5 5 6 6 6 6 6 6 5 5 5 5 5 5 5 5 6 6 6 6 6 6 6 5 5 4 4 4 4 4
9 9 8 8 7 7 6 6 6 7 5 4 5 5 5 5 6 6 6 6 5 5 5 5 5 5 5 5 5 5 5 5 6 5 5 5 5 5 5 4 4 4 4
9 8 8 7 7 7 7 7 7 6 5 5 4 4 5 5 5 5 5 6 6 6 6 5 5 5 5 5 5 6 6 6 6 5 5 5 5 5 5 4 4 4 4
9 8 7 7 6 6 7 7 7 5 5 5 5 4 5 5 5 5 5 5 6 6 6 6 5 5 6 5 5 5 6 6 6 5 5 5 4 4 4 4 4 4 3
8 8 7 7 7 6 7 7 6 5 5 5 4 4 3 5 5 5 5 5 5 5 6 6 5 5 5 5 5 6 6 5 5 5 5 4 4 3 3 3 3 3 3
7 7 8 7 7 7 7 7 7 6 5 6 5 5 4 4 4 5 5 5 5 5 5 5 5 5 6 5 5 5 5 5 5 4 4 4 3 3 3 3 3 3 3
7 7 8 8 7 7 7 7 7 7 7 6 6 5 5 4 4 5 5 5 5 5 5 5 5 5 6 5 5 5 5 5 4 4 4 3 3 2 2 2 3 2 2
8 8 8 8 8 7 7 7 7 7 8 7 7 6 6 6 5 5 5 5 5 4 4 5 5 5 5 5 5 5 5 4 4 3 3 3 2 2 2 2 2 1 1
7 8 8 7 7 7 7 7 7 7 7 7 7 7 7 6 6 5 5 5 5 4 4 5 4 4 5 4 4 4 4 3 3 3 3 2 2 2 2 2 1 1 0
8 8 8 7 7 7 7 7 7 7 7 7 7 7 7 7 6 6 5 5 5 5 4 4 4 4 4 4 4 3 3 2 2 2 1 1 1 1 1 1 0 1 -0
7 7 7 7 7 6 6 6 6 6 6 6 6 6 7 7 6 6 4 4 4 4 4 4 3 3 3 3 3 3 2 1 1 -0 -0 0 -0 -0 -0 -0 -0 -0 -1
7 7 7 7 5 4 5 5 5 5 5 6 6 6 6 6 6 5 4 4 4 4 3 3 3 3 2 3 2 2 1 1 -0 -0 -1 -1 -1 -1 -1 -1 -1 -1 -2
6 6 5 5 4 4 4 4 4 4 4 5 5 5 5 4 4 4 4 3 4 3 3 3 2 2 1 2 2 1 0 0 -1 -1 -1 -2 -2 -2 -2 -2 -2 -3 -3
5 4 4 3 3 3 3 3 3 3 3 3 3 2 2 2 2 2 1 2 2 2 2 2 3 2 2 1 1 0 -0 -0 -1 -2 -2 -2 -2 -2 -2 -3 -3 -4 -4
4 4 4 3 3 3 3 2 2 2 2 2 2 1 1 2 1 1 1 2 2 1 1 1 2 2 1 1 1 -1 0 -1 -2 -2 -3 -3 -3 -3 -3 -3 -4 -4 -5
4 4 4 4 4 3 3 2 2 2 2 2 2 2 1 1 1 1 1 1 0 0 -0 0 1 2 1 1 1 -0 -1 -2 -2 -2 -3 -3 -3 -3 -4 -4 -4 -4 -4
3 3 3 3 3 3 3 2 2 1 1 1 1 2 2 1 1 0 0 -0 -1 -1 -1 -1 -1 -1 -1 -1 -1 -1 -2 -3 -2 -2 -3 -3 -3 -3 -4 -4 -4 -4 -4
3 3 3 2 3 2 2 2 2 1 0 0 0 -0 0 1 0 1 -0 -1 -1 -1 -1 -1 -1 -1 -1 -1 -1 -2 -2 -2 -2 -2 -3 -3 -3 -3 -3 -3 -4 -4 -4
3 3 2 2 2 1 1 1 0 -1 -1 -0 -0 -0 -0 0 -0 -0 -1 -1 -1 -1 -2 -1 -2 -2 -2 -2 -2 -2 -2 -3 -3 -3 -3 -3 -3 -3 -3 -3 -4 -4 -5

GFSGL_700_temp_060.txt.gz
Temp
9 9 8 7 7 8 8 8 8 8 8 8 8 8 7 7 8 8 7 8 8 8 8 8 8 8 8 8 8 8 8 7 7 8 7 7 7 7 6 6 6 6 5
10 10 9 8 8 8 8 8 8 8 8 8 8 7 8 7 7 7 7 8 8 8 8 8 8 8 8 8 8 8 8 7 7 7 7 6 6 6 6 5 5 5 5
10 10 10 8 8 8 8 8 7 7 7 7 7 7 7 7 7 7 7 7 7 8 8 8 8 8 8 8 8 8 7 7 7 7 6 6 6 6 6 5 5 5 4
10 10 10 9 9 8 8 7 7 7 7 7 7 6 6 6 6 6 6 7 7 7 7 7 7 7 7 8 8 8 7 7 7 7 6 6 6 5 4 4 4 4 3
9 10 9 9 9 8 8 7 7 7 7 6 6 6 6 6 6 6 6 6 7 7 7 7 7 7 7 7 7 7 7 7 7 7 7 6 6 6 4 4 4 4 3
9 9 9 9 8 7 7 7 7 7 6 5 5 6 6 6 5 5 5 6 6 7 6 6 6 6 6 6 6 6 6 7 7 7 6 6 6 6 6 5 4 4 4
9 9 9 9 8 8 7 6 6 6 5 5 5 5 5 5 5 5 5 5 6 6 6 6 6 6 6 6 6 6 6 6 6 6 6 6 6 6 5 5 4 4 4
10 9 9 9 9 9 9 7 6 6 6 5 5 5 4 4 5 5 5 5 5 6 6 6 5 5 5 5 5 5 6 6 6 6 6 6 5 5 5 4 4 4 4
10 9 9 8 8 9 9 8 7 7 7 6 6 5 5 4 4 5 5 5 5 5 5 5 5 5 5 5 5 5 5 5 5 5 5 5 5 5 5 5 4 4 4
9 9 8 8 8 8 8 8 7 7 6 6 5 5 5 4 4 5 5 5 5 5 5 5 5 5 5 5 5 5 5 5 5 5 5 5 5 5 5 5 4 4 4
9 9 8 8 8 8 8 8 7 7 7 6 6 5 5 5 5 5 5 5 5 5 5 5 5 5 5 5 5 5 5 5 5 4 4 4 5 5 5 4 4 4 4
9 9 8 8 8 7 7 7 7 7 7 6 5 5 5 4 4 5 5 4 5 5 5 5 5 5 5 5 5 5 5 5 5 4 4 4 4 5 4 4 4 3 3
9 9 8 8 8 8 7 7 7 7 7 7 6 5 5 4 4 4 5 5 5 5 5 5 5 5 5 5 5 5 5 5 5 5 4 4 4 4 4 3 3 3 2
8 8 8 8 8 7 7 7 7 7 7 7 7 6 5 5 5 4 4 4 4 4 4 4 5 6 5 5 5 5 5 5 5 5 4 4 4 3 3 3 2 2 2
8 8 8 8 7 7 7 7 7 7 7 7 6 6 6 6 5 5 4 5 4 4 4 5 5 5 5 5 4 4 4 4 4 4 4 3 3 3 2 2 2 1 2
8 8 8 7 7 7 7 7 7 7 7 7 7 7 6 6 6 6 5 5 4 4 4 5 5 4 4 4 4 4 4 4 3 3 3 3 3 2 2 2 1 1 1
7 7 7 7 7 7 7 7 7 7 7 7 6 6 6 6 5 6 5 5 4 5 4 4 4 4 4 3 4 4 4 3 3 3 3 3 2 2 1 1 1 1 0
7 7 7 6 6 6 6 6 7 7 7 6 6 5 5 6 6 5 5 5 5 5 4 4 4 4 3 3 3 3 3 2 2 2 2 2 1 1 1 0 0 -0 -0
6 6 6 6 5 5 5 5 6 5 5 5 5 5 5 5 6 5 5 3 3 4 4 3 3 3 3 3 3 2 2 2 2 0 -0 0 -0 0 -1 -1 -1 -1 -2
5 5 4 4 4 4 3 4 4 4 4 4 4 4 4 4 4 4 4 3 2 3 3 3 3 3 3 3 2 1 1 1 2 1 -0 -1 -2 -2 -2 -2 -2 -2 -3
4 4 4 4 3 3 3 3 3 3 3 3 3 3 3 3 2 1 0 1 0 1 2 2 1 2 1 2 2 2 1 1 0 -1 -2 -2 -2 -2 -3 -3 -3 -3 -4
4 4 4 3 3 3 3 3 2 2 2 2 2 2 2 2 2 1 1 1 1 1 1 1 1 1 1 0 0 1 1 0 -0 -1 -1 -2 -2 -2 -3 -3 -4 -4 -5
4 4 4 4 4 4 3 3 3 2 2 1 1 1 1 1 1 1 1 1 1 1 0 0 0 0 0 0 0 0 0 -0 0 -1 -2 -1 -2 -2 -2 -3 -4 -4 -4
4 5 4 4 4 3 3 2 1 1 1 1 1 1 1 1 1 0 -0 0 1 0 -0 -0 -1 -1 -1 -1 -1 -1 -2 -2 -1 -1 -1 -2 -1 -2 -3 -3 -3 -3 -3
4 4 4 4 3 3 2 2 1 0 -0 -0 -0 0 0 -0 0 0 0 -0 -0 -1 -1 -1 -1 -2 -1 -1 -2 -2 -2 -2 -2 -2 -1 -1 -2 -2 -2 -3 -3 -3 -3
4 4 3 2 2 2 2 1 -0 -1 -1 -0 -1 -0 -0 -0 -0 -0 -0 -1 -0 -0 -1 -1 -1 -2 -2 -2 -2 -2 -2 -2 -2 -2 -2 -2 -2 -2 -2 -2 -3 -3 -3

GFSGL_700_temp_063.txt.gz
Temp
11 10 10 9 8 8 8 8 7 7 7 8 8 8 7 8 7 7 7 8 8 8 8 8 7 8 8 8 8 8 7 7 7 7 7 7 6 6 6 6 6 6 5
11 11 10 9 9 8 8 8 8 8 8 8 8 7 7 7 7 8 7 7 7 7 8 8 8 8 8 8 8 7 7 7 7 7 6 6 6 6 6 6 5 5 5
11 10 10 10 9 8 8 8 8 8 8 8 8 8 7 7 7 7 7 7 7 7 7 8 8 8 8 8 8 8 7 7 6 7 7 6 6 6 6 5 4 5 4
10 10 10 10 9 9 8 8 8 8 7 8 7 7 7 7 7 6 6 6 7 7 7 7 8 8 8 8 8 8 8 8 7 6 6 6 6 5 5 5 4 4 4
10 10 10 10 9 9 8 8 8 7 7 7 7 7 6 6 6 6 6 6 6 6 7 7 7 7 7 7 7 7 7 7 7 7 6 6 6 6 5 4 4 4 4
10 10 10 10 9 9 8 8 7 7 6 6 5 5 5 6 6 6 6 6 6 6 6 6 6 6 6 7 7 7 7 7 7 6 6 6 6 5 6 5 4 4 4
10 9 9 9 9 9 9 8 7 7 7 7 5 5 5 5 5 5 5 5 5 5 5 6 6 6 6 6 6 6 6 6 6 6 6 6 6 5 5 5 4 3 3
10 9 9 9 9 9 9 8 7 7 7 6 5 5 5 4 5 5 5 5 5 5 5 5 5 5 5 6 6 6 6 6 6 6 6 5 5 5 5 5 5 4 4
9 9 9 9 9 8 8 8 7 7 7 7 6 5 5 5 4 5 5 5 5 5 4 5 5 5 5 5 5 5 5 5 5 5 5 5 5 5 5 5 4 4 4
9 9 8 9 8 8 8 7 7 7 7 7 7 6 5 5 5 4 5 5 5 5 4 4 5 5 5 5 5 5 5 5 5 5 5 5 5 5 5 4 4 4 4
9 8 8 8 8 8 8 7 7 7 7 7 7 6 6 5 5 4 4 4 5 5 4 4 4 5 5 5 5 5 5 5 5 5 5 5 5 5 5 5 4 4 4
9 8 8 8 7 8 7 7 7 7 8 8 7 7 7 6 5 4 4 4 4 4 4 5 5 5 5 5 5 5 5 5 5 4 4 4 4 4 5 4 4 4 4
8 8 8 8 7 7 7 7 7 7 8 7 7 7 7 6 6 4 4 3 4 4 4 4 5 5 5 5 5 5 5 5 5 4 4 4 4 5 4 4 4 4 3
6 7 7 7 7 7 7 7 7 8 8 8 8 7 7 7 6 5 4 4 4 4 4 4 4 4 4 4 5 5 5 5 5 5 4 3 4 4 3 3 3 3 3
6 6 7 7 7 7 7 7 7 7 8 8 7 7 7 7 7 5 5 4 4 4 4 4 4 5 4 4 5 4 4 4 4 4 4 3 3 3 3 3 3 3 2
6 6 7 7 7 7 7 7 7 7 7 7 7 7 7 7 7 6 6 5 4 4 4 4 4 4 5 4 4 5 4 4 4 3 4 4 3 3 2 2 2 2 2
6 6 6 6 6 6 7 7 7 7 7 7 6 6 6 6 6 6 6 5 5 4 4 4 4 4 4 4 4 4 3 3 2 2 2 2 2 2 2 2 2 1 1
5 6 5 6 6 6 7 7 6 6 6 5 5 5 6 5 5 5 5 5 5 5 4 4 4 4 4 4 3 3 3 3 2 1 1 1 1 1 1 1 1 1 0
4 5 5 5 6 6 6 6 5 5 5 4 5 5 5 5 5 5 4 5 5 4 3 4 4 3 4 4 3 2 2 2 1 2 1 -0 0 1 0 0 -0 -1 -1
3 4 4 4 5 5 4 4 3 3 3 3 4 4 5 5 4 4 4 4 4 3 3 2 2 2 2 3 2 2 2 2 0 0 0 0 -0 -1 -1 -1 -1 -1 -1
3 3 3 4 3 3 3 3 3 3 3 3 3 3 3 4 4 3 2 2 2 2 1 1 2 2 2 1 1 2 1 2 1 0 1 -0 -1 -0 -2 -2 -2 -2 -2
3 3 4 3 3 3 3 3 3 3 3 3 3 2 2 2 2 2 2 2 2 1 1 1 1 1 1 1 1 1 1 1 1 0 0 0 -0 -1 -2 -2 -2 -2 -3
4 4 4 3 3 3 3 3 3 3 3 3 2 2 1 1 1 1 1 1 1 0 0 0 0 0 -0 0 0 0 0 -0 -0 0 0 0 -0 -1 -2 -2 -2 -2 -2
3 4 4 4 4 3 3 3 3 3 2 1 0 0 1 1 1 0 -0 -0 -0 0 0 -0 -0 -0 -1 -1 -1 -1 -1 -1 -1 -1 -2 -2 -2 -2 -2 -1 -1 -2 -2
4 4 4 3 3 3 2 2 2 2 1 -0 -0 -1 -1 -1 -1 -1 -1 -1 -1 -1 -1 -1 -1 -1 -1 -1 -1 -2 -2 -2 -2 -2 -2 -2 -2 -2 -1 -2 -2 -2 -2
3 3 3 3 3 2 2 2 2 1 -0 -0 -1 -1 -1 -1 -1 -2 -1 -1 -2 -2 -2 -2 -2 -2 -1 -1 -2 -2 -2 -2 -2 -2 -2 -2 -2 -2 -2 -2 -2 -2 -2

GFSGL_700_temp_069.txt.gz
Temp
12 11 11 10 9 9 9 9 9 8 8 8 8 8 8 8 8 8 7 7 8 8 8 8 8 8 8 8 8 7 7 7 7 7 7 7 7 7 7 7 7 7 7
12 11 11 11 10 9 9 9 9 8 8 8 8 8 8 8 8 7 7 8 8 8 8 8 8 9 8 8 8 8 8 7 7 7 7 7 7 7 7 7 7 6 6
11 11 11 11 10 10 9 9 9 8 8 8 8 8 7 8 8 8 7 7 7 7 8 8 8 8 8 8 8 8 7 7 7 7 7 7 7 6 7 6 6 6 5
12 11 11 11 10 10 10 9 9 8 8 8 8 7 7 7 7 7 7 7 7 7 7 7 8 8 8 8 8 8 7 8 7 7 6 7 6 6 6 6 6 6 5
12 11 11 11 11 10 10 9 9 8 8 7 7 8 7 6 6 6 6 6 6 6 7 7 7 7 8 8 8 8 8 8 8 7 6 7 6 6 5 5 5 5 4
12 11 11 11 10 10 10 9 9 9 8 8 8 8 7 6 6 5 5 6 6 6 6 6 7 7 7 7 7 7 7 7 7 7 7 7 6 5 5 5 5 5 4
12 12 12 11 11 10 10 9 9 9 8 8 8 8 7 6 5 5 5 5 6 6 6 6 6 7 6 6 6 6 7 7 6 6 7 6 6 6 5 5 5 4 4
12 12 12 11 10 10 10 9 9 9 8 8 8 8 8 7 6 6 5 5 5 6 6 6 5 6 6 6 6 6 6 6 6 6 6 6 6 6 5 5 4 4 4
11 11 11 12 10 10 10 10 9 8 8 8 8 8 8 8 8 6 5 5 5 5 5 5 5 5 5 5 5 5 5 5 5 5 5 5 5 5 5 5 4 4 4
11 11 11 11 10 10 10 10 9 9 9 8 8 8 8 8 8 7 6 5 5 5 5 5 5 5 5 5 5 5 5 5 5 5 5 5 5 5 5 5 4 4 4
10 11 11 11 10 10 10 10 9 9 9 8 8 8 8 7 7 7 7 5 5 4 4 5 5 5 5 4 4 4 5 5 5 5 5 5 5 5 5 5 4 4 3
10 10 10 10 10 11 9 9 9 9 8 8 8 7 8 8 7 7 7 6 4 4 4 4 5 4 5 5 5 5 5 5 5 5 5 5 5 5 5 5 5 4 3
10 10 10 9 9 9 10 9 8 8 8 8 8 7 8 7 7 7 6 6 5 4 4 4 4 4 4 4 4 4 4 4 4 4 4 4 5 5 5 5 5 5 4
7 8 7 7 8 8 8 9 8 7 7 7 7 7 7 7 7 6 6 5 5 5 4 4 4 4 4 4 4 4 4 4 4 4 4 4 4 5 5 4 4 4 4
6 7 7 7 7 7 7 7 7 7 7 7 7 7 7 7 7 7 6 6 5 4 4 4 4 4 4 4 4 4 4 4 4 4 3 3 3 3 3 3 3 3 3
7 6 6 6 6 6 6 7 6 7 6 6 6 7 7 7 7 6 6 6 5 5 4 5 5 4 4 4 4 4 4 4 4 4 3 3 3 3 2 2 2 2 2
6 6 6 6 5 5 6 6 6 6 6 6 6 6 6 6 6 5 5 5 5 5 5 5 5 5 5 3 4 3 3 3 3 3 3 3 3 3 2 2 1 1 1
5 5 5 4 4 5 4 5 5 4 5 6 6 6 6 6 5 5 5 5 5 5 5 5 5 4 4 4 5 3 3 3 3 2 3 3 2 2 2 2 2 1 1
4 4 4 4 3 3 2 2 2 3 3 2 3 4 4 4 4 4 4 4 4 3 4 3 4 3 3 3 3 2 1 2 2 2 3 3 1 1 1 1 1 1 0
2 3 3 3 3 2 1 1 2 3 3 2 2 3 3 3 2 2 2 3 3 1 2 3 2 2 2 2 2 2 2 1 1 1 1 1 1 1 1 1 1 1 0
1 0 0 1 2 2 2 3 3 3 2 3 2 3 3 2 1 2 1 0 1 1 1 1 1 1 1 1 1 1 1 1 1 1 1 1 1 1 0 0 -0 0 -1
2 2 1 1 1 1 1 1 1 2 2 2 2 2 1 1 1 1 1 0 0 1 0 1 1 1 1 0 0 1 1 0 -0 -0 -0 0 -0 -0 -1 -1 -1 -1 -1
2 2 2 2 1 0 1 1 1 1 1 1 1 1 1 1 1 0 -0 0 0 -0 0 0 0 -0 -0 -0 -0 -1 -1 -1 -1 -1 -1 -1 -1 -1 -1 -1 -1 -2 -2
3 3 3 3 3 2 1 1 1 1 1 2 2 2 1 1 0 -0 -1 -1 -1 -1 -0 -0 -0 -0 -0 -0 -1 -1 -2 -2 -2 -2 -1 -1 -2 -1 -2 -2 -2 -2 -2
3 3 3 3 3 2 2 2 2 2 1 1 1 1 -1 -0 -1 -0 -1 -0 -0 -1 -1 -1 -1 -1 -0 -1 -1 -1 -1 -1 -1 -1 -2 -1 -1 -2 -2 -2 -2 -3 -3
2 2 2 2 1 1 1 1 1 1 1 0 -0 -1 -1 -1 -1 -0 -0 -0 -0 -1 -1 -1 -1 -1 -1 -1 -1 -1 -1 -1 -1 -1 -2 -2 -2 -2 -3 -3 -3 -3 -3

GFSGL_700_temp_072.txt.gz
Temp
12 12 12 11 11 10 10 10 10 9 9 8 8 8 8 8 8 8 7 7 7 7 7 7 7 7 7 8 8 7 8 7 8 8 7 7 7 8 8 7 7 7 7
12 12 12 11 11 11 10 10 9 9 9 8 8 8 8 8 8 8 8 8 8 7 7 7 7 7 7 7 7 8 8 7 7 7 7 7 7 7 7 7 7 7 6
12 13 12 12 11 11 11 10 10 9 9 8 8 8 7 7 7 7 7 7 7 7 7 7 7 7 8 7 7 7 7 7 7 7 7 6 7 7 7 6 6 6 6
13 13 13 12 11 11 11 10 10 10 9 9 8 7 7 7 6 6 6 6 7 7 7 7 7 7 7 7 7 7 7 7 7 7 7 6 6 6 6 6 6 5 5
13 13 13 13 11 11 11 10 10 10 10 10 9 8 8 8 7 6 6 6 6 6 7 7 7 7 7 7 7 7 7 7 7 7 7 6 6 5 5 6 6 5 5
13 12 12 12 12 11 11 10 10 10 10 9 9 9 8 8 7 6 6 6 6 6 6 6 6 6 6 6 7 7 7 7 7 7 6 7 6 6 5 5 5 5 5
12 12 12 12 12 11 10 10 10 9 9 9 9 9 9 8 8 7 6 6 6 6 5 5 6 6 6 6 6 6 6 6 7 7 7 7 7 5 4 5 5 4 5
12 12 12 12 12 11 11 10 10 9 9 9 8 8 9 8 9 8 7 5 5 5 5 5 5 5 5 6 6 6 6 6 6 6 6 6 6 6 6 6 4 4 4
12 12 12 11 12 12 11 10 10 10 9 8 8 8 8 8 8 8 8 7 6 5 5 5 4 4 4 5 5 5 5 5 5 5 5 5 5 5 6 6 5 5 5
10 11 11 11 11 11 10 9 9 9 9 9 8 8 8 8 8 8 8 8 6 6 5 4 5 4 4 4 4 4 5 5 5 5 5 5 5 5 5 5 5 5 4
10 10 9 10 10 10 10 9 9 9 9 8 8 8 8 8 8 8 8 8 7 5 5 5 4 4 4 4 4 4 4 4 4 4 4 5 5 5 5 5 5 5 4
9 9 9 8 10 10 9 9 9 8 8 8 8 8 8 8 8 8 8 8 7 6 5 5 4 4 4 5 4 4 4 4 4 4 4 5 5 5 5 5 4 4 4
8 7 9 7 9 9 8 7 7 8 8 8 8 7 8 8 8 8 8 8 7 6 5 5 4 4 4 4 4 4 5 4 5 4 4 4 4 5 5 5 5 5 4
7 3 5 5 8 8 8 8 7 7 7 7 7 7 7 7 8 7 7 7 7 6 5 5 5 5 4 4 4 4 4 4 4 4 4 3 3 4 4 4 4 4 4
8 6 6 6 7 7 7 7 6 7 6 6 6 7 7 7 7 7 7 7 7 7 6 5 4 4 4 4 4 4 4 4 4 3 3 3 3 3 4 3 3 3 3
8 8 7 7 7 6 6 6 6 6 5 6 6 7 7 7 7 7 7 7 6 6 6 5 4 4 4 3 4 4 4 4 3 3 4 3 3 3 3 3 3 3 2
6 7 7 6 7 6 5 5 5 5 5 5 6 6 6 6 6 6 6 6 5 5 6 5 5 4 4 4 3 4 4 4 3 3 2 3 3 3 3 2 2 2 2
5 6 6 6 6 6 5 4 4 4 4 5 5 5 6 6 5 5 5 5 4 5 5 4 4 4 4 4 4 3 2 2 3 2 3 3 3 2 2 2 1 2 2
5 5 5 5 5 5 4 4 3 3 4 3 3 4 4 4 4 4 4 4 3 3 4 3 3 3 3 3 3 3 2 2 2 2 2 2 2 2 2 1 1 1 0
4 4 4 4 4 3 3 3 3 3 3 3 3 2 3 2 3 3 3 4 3 3 2 1 2 2 2 2 2 2 2 2 1 1 1 1 1 1 1 1 1 0 -0
3 3 4 3 1 2 1 1 1 2 2 3 3 3 1 2 3 2 2 2 2 2 2 1 1 2 2 2 1 1 1 0 0 1 1 1 0 1 -0 0 -0 -0 -0
2 2 1 2 1 1 1 2 1 2 2 2 3 3 2 2 2 2 1 1 1 1 1 0 -0 0 0 1 0 0 0 0 0 -0 -0 -0 -1 -1 -1 -0 -1 -1 -1
3 2 2 2 1 1 1 1 1 2 2 2 2 2 1 1 2 2 1 1 -0 -0 0 -0 -1 -0 -0 -0 -0 -0 -0 -1 -1 -1 -1 -1 -2 -1 -1 -1 -1 -1 -2
3 2 3 2 2 1 1 0 1 1 1 1 1 1 1 1 1 1 1 1 -0 -0 -0 0 1 1 0 -0 -0 -1 -1 -1 -1 -1 -1 -1 -1 -1 -1 -1 -1 -1 -1
3 3 3 2 1 0 -0 0 0 1 1 1 1 1 1 1 1 0 -0 0 0 0 1 1 0 0 -0 -1 -0 -1 -1 -1 -1 -1 -1 -1 -1 -1 -1 -2 -2 -2 -2
2 2 2 2 1 1 1 1 -1 0 -0 -0 0 0 0 0 1 1 1 1 0 0 0 0 0 -1 -1 -0 -1 -1 -1 -1 -2 -2 -2 -2 -2 -2 -2 -2 -2 -2 -3

GFSGL_700_temp_075.txt.gz
Temp
13 13 13 13 12 11 11 11 10 10 10 9 9 9 9 8 8 8 8 7 7 7 7 7 7 7 7 7 7 7 8 8 8 7 7 7 7 7 7 7 7 7 7
14 14 14 13 12 11 11 10 10 9 9 9 9 9 9 8 8 8 7 7 7 7 7 7 7 8 7 7 7 7 7 8 8 7 7 7 6 7 7 7 7 6 6
14 14 13 13 13 12 11 10 10 9 9 9 9 8 8 9 8 8 7 7 7 7 7 7 7 7 7 7 7 7 7 7 7 6 7 7 7 7 7 6 6 6 6
13 13 13 13 13 12 11 11 10 10 10 9 9 8 9 8 8 8 7 6 6 6 7 7 7 7 7 7 7 8 8 7 7 6 6 6 6 6 6 6 6 5 6
13 13 13 12 12 12 11 11 10 10 10 9 9 9 8 8 9 8 6 6 6 6 7 7 6 6 6 7 7 7 7 7 7 7 7 7 7 6 5 5 5 5 5
13 13 13 12 12 12 11 11 10 10 9 9 9 9 8 8 8 8 7 7 6 6 6 6 6 6 6 6 6 7 7 7 7 7 7 7 6 5 5 5 5 5 5
12 11 12 12 11 12 12 11 10 10 9 9 9 8 8 8 8 8 8 7 6 6 5 6 6 6 6 6 6 6 6 6 6 7 6 6 6 5 4 5 4 4 4
11 11 11 11 11 11 11 11 11 10 9 9 8 8 8 8 8 8 8 8 7 6 6 6 5 6 5 5 6 5 5 5 5 5 5 6 6 6 6 5 4 4 3
10 11 10 10 10 10 11 11 10 10 9 8 7 8 8 8 8 8 8 8 8 7 7 6 6 6 5 5 5 5 5 5 5 5 5 5 5 5 5 5 5 5 5
12 9 10 10 10 10 9 10 9 9 9 8 8 7 7 7 8 8 8 8 8 8 6 5 6 6 6 6 5 5 5 5 5 5 5 5 5 5 4 4 5 5 5
11 11 9 8 6 7 8 7 9 9 8 8 8 7 7 7 7 8 8 8 8 8 7 6 5 5 5 5 4 5 4 4 4 4 5 5 5 5 5 4 5 5 5
10 10 9 8 7 6 3 5 7 8 7 8 8 8 7 7 7 8 8 8 7 8 7 7 5 4 4 4 4 4 4 4 4 4 4 4 5 5 5 5 5 5 5
10 10 9 9 8 8 5 7 6 7 7 7 7 7 7 7 7 7 7 7 7 7 7 7 6 5 4 4 5 4 5 4 4 5 5 4 4 5 5 4 4 4 4
10 10 10 10 10 8 6 6 7 6 6 6 7 7 7 7 7 7 7 7 7 7 7 6 6 5 5 4 4 4 4 4 3 4 3 3 4 4 4 4 3 3 3
10 10 10 10 9 9 9 7 7 6 6 6 6 6 5 6 6 7 7 7 7 7 7 6 6 5 4 4 4 4 4 4 4 4 4 3 3 3 3 4 3 3 3
9 9 9 8 7 7 8 7 7 6 6 6 6 5 5 6 6 6 6 6 6 6 6 6 6 5 5 4 4 4 4 4 3 3 3 3 3 3 3 2 2 3 2
5 5 7 7 7 6 6 6 6 5 5 5 5 5 5 5 6 6 6 5 6 6 5 5 5 5 5 5 4 4 5 4 5 3 4 3 2 3 2 2 2 1 2
5 5 5 5 5 6 6 5 5 5 4 4 5 5 5 5 5 5 5 4 5 5 4 4 4 4 4 4 3 3 3 3 3 3 3 3 2 2 2 2 2 2 2
5 5 5 5 4 5 5 5 5 4 3 3 3 3 2 3 3 3 4 4 4 4 5 5 4 4 3 2 2 3 3 2 2 2 1 1 1 1 1 1 1 1 1
3 4 4 4 4 4 3 2 3 4 4 3 3 3 2 2 2 2 2 3 2 3 2 2 3 2 0 2 2 1 1 1 1 1 1 1 1 1 1 1 0 0 0
3 2 3 4 3 3 3 2 3 2 3 2 2 2 3 1 2 2 1 2 2 2 1 1 1 1 1 1 1 1 1 1 1 1 1 1 0 0 -0 -1 -2 -1 -2
3 2 2 2 2 2 2 2 2 2 2 2 2 2 1 2 1 1 1 1 1 1 1 1 0 0 1 1 1 1 1 1 0 0 0 1 1 1 0 -0 -0 -0 -0
3 3 3 2 2 2 2 2 3 2 2 2 2 1 1 1 1 1 1 1 1 1 1 1 0 1 0 0 0 0 0 0 0 0 0 -0 -0 -0 -0 -0 -0 -0 -0
3 3 3 3 2 2 2 1 2 2 2 1 1 1 1 1 0 1 0 1 1 1 0 0 0 0 1 1 1 1 1 0 0 -0 -0 -0 -1 -1 -1 -1 -1 -1 -1
3 3 2 2 1 1 1 0 0 1 1 0 1 1 1 0 0 0 1 1 0 1 1 0 0 0 -0 -0 -0 -0 -1 -1 -1 -1 -1 -1 -1 -1 -1 -1 -1 -1 -1
1 2 1 1 0 -0 -0 -1 -1 -0 -1 -0 -1 0 0 1 1 1 1 1 1 1 0 -0 -1 -1 -0 -0 -1 -1 -1 -1 -1 -1 -1 -1 -1 -1 -1 -1 -2 -2 -2